Effective Sunday, March 17, 2024, the National Weather Service National Data Buoy Center will discontinue its Dial-A-Buoy Interactive Voice Response system. For more information, see Service Change Notice 24-06 (PDF).

Station DHXA2 - Deadhorse, AK Image indicating link to RSS feed of recent meteorological observations for station DHXA2


Conditions at DHXA2 as of
(8:43 am AKST)
1743 GMT on 03/03/2024:
     

Click on the graph icon in the table below to see a time series plot of the last five days of that observation.

5-day plot - Wind Direction Wind Direction (WDIR): SE ( 130 deg true )
5-day plot - Wind Speed Wind Speed (WSPD): 2 kts
5-day plot - Wind Gust Wind Gust (GST): 3 kts
5-day plot - Atmospheric Pressure Atmospheric Pressure (PRES):29.80 in
5-day plot - Air Temperature Air Temperature (ATMP):-14.3 °F
5-day plot - Dew Point Dew Point (DEWP):-19.3 °F
5-day plot - Wind Speed at 10 Meters Wind Speed at 10 meters (WSPD10M): 2 kts
5-day plot - Wind Speed at 20 Meters Wind Speed at 20 meters (WSPD20M): 2 kts
5-day plot -  Wind Speed, Wind Gust and Atmospheric Pressure Combined plot of Wind Speed, Gust, and Air Pressure
Previous observations
TIME
(AKST)
5-day plot - Wind Direction
WDIR
 
5-day plot - Wind Speed
WSPD
kts
5-day plot - Wind Gust
GST
kts
5-day plot - Wave Height
WVHT
ft
5-day plot - Dominant Wave Period
DPD
sec
5-day plot - Average Wave Period
APD
sec
5-day plot - Mean Wave Direction
MWD
 
5-day plot - Atmospheric Pressure
PRES
in
5-day plot - Pressure Tendency
PTDY
in
5-day plot - Air Temperature
ATMP
°F
5-day plot - Water Temperature
WTMP
°F
5-day plot - Dew Point
DEWP
°F
5-day plot - Salinity
SAL
psu
5-day plot - Visibility
VIS
nmi
5-day plot - Tide (above MLLW)
TIDE
ft
2024-03-03 08:34 am SE 1 2----29.80--13.4--18.4---
2024-03-03 08:24 am NE 2 3----29.81--13.2--18.0---
2024-03-03 08:14 am NE 2 3----29.81--13.4--18.2---
2024-03-03 08:04 am NE 2 3----29.81--13.0--17.9---
2024-03-03 07:54 amENE 1 2----29.81--13.2--18.0---
2024-03-03 07:34 amWNW 2 2----29.83--13.7--18.8---
2024-03-03 07:24 amWNW 1 2----29.83--12.6--17.3---
2024-03-03 07:14 am- 0 1----29.83--12.8--17.5---
2024-03-03 07:04 am NW 1 2----29.83--12.6--17.3---
2024-03-03 06:54 am NW 1 2----29.84--12.8--17.5---
2024-03-03 06:43 amWNW 1 2----29.84--13.4--18.2---
2024-03-03 06:33 amWNW 3 4----29.85--12.5--17.1---
2024-03-03 06:23 amWNW 3 4----29.85--11.4--15.9---
2024-03-03 06:13 am W 3 4----29.85--11.4--15.7---
2024-03-03 06:03 am W 6 8----29.86--12.5--17.3---
2024-03-03 05:54 am W 8 11----29.86--11.6--16.2---
2024-03-03 05:44 am W 9 11----29.87--11.6--16.1---
2024-03-03 05:33 am W 10 11----29.87--11.4--15.9---
2024-03-03 05:23 am W 10 11----29.87--10.7--15.0---
2024-03-03 05:14 am W 9 11----29.87- -9.9--14.3---
2024-03-03 05:04 amWSW 10 11----29.87--10.5--14.6---
2024-03-03 04:53 amWSW 10 12----29.87--12.1--16.6---
2024-03-03 04:44 amWSW 11 13----29.88--11.4--15.9---
2024-03-03 04:34 amWSW 12 14----29.88- -9.6--13.7---
2024-03-03 04:24 amWSW 12 14----29.88--10.8--15.2---
2024-03-03 04:14 amWSW 12 14----29.89--11.0--15.5---
2024-03-03 04:03 amWSW 13 14----29.89--11.9--16.6---
2024-03-03 03:53 amWSW 13 14----29.90--11.4--15.7---
2024-03-03 03:43 amWSW 14 15----29.90--11.6--16.1---
2024-03-03 03:34 amWSW 14 15----29.90--10.7--15.0---
2024-03-03 03:23 amWSW 13 14----29.91--10.5--14.6---
2024-03-03 03:13 amWSW 14 15----29.91--10.7--15.0---
2024-03-03 03:03 amWSW 13 16----29.92--10.8--15.2---
2024-03-03 02:53 amWSW 13 16----29.92--11.0--15.3---
2024-03-03 02:43 amWSW 14 17----29.93--10.7--15.0---
2024-03-03 02:33 amWSW 16 17----29.93--11.2--15.5---
2024-03-03 02:23 amWSW 16 18----29.94--13.2--18.0---
2024-03-03 02:13 amWSW 16 19----29.94--14.6--19.7---
2024-03-03 02:04 amWSW 15 17----29.94--14.6--19.8---
2024-03-03 01:53 amWSW 13 16----29.94--15.0--20.2---
2024-03-03 01:34 amWSW 11 14----29.95--14.6--19.8---
2024-03-03 01:24 amWSW 11 14----29.95--14.1--19.1---
2024-03-03 01:13 amWSW 12 14----29.96--11.4--15.9---
2024-03-03 01:04 amWSW 12 13----29.96--11.2--15.5---
2024-03-03 01:03 amWSW 12 13----29.96--11.2--15.5---
2024-03-03 12:43 am SW 11 13----29.96--14.3--19.3---
2024-03-03 12:33 am SW 11 13----29.97--15.0--20.4---
2024-03-03 12:24 amWSW 11 13----29.97--13.2--18.0---
2024-03-03 12:14 amWSW 10 12----29.97--12.5--17.1---
2024-03-03 12:04 am W 12 13----29.97--12.6--17.3---
2024-03-02 11:53 pm W 11 13----29.98--12.8--17.7---
2024-03-02 11:43 pm W 11 12----29.98--13.2--18.0---
2024-03-02 11:34 pm W 12 13----29.98--12.8--17.7---
2024-03-02 11:24 pm W 10 12----29.98--13.0--17.9---
2024-03-02 11:14 pm W 10 12----29.98--13.2--18.0---
2024-03-02 11:04 pm W 10 13----29.99--13.2--18.0---
2024-03-02 10:53 pm W 10 12----29.99--12.8--17.7---
2024-03-02 10:43 pm W 11 14----29.99--11.2--15.7---
2024-03-02 10:33 pm W 11 14----29.99--10.8--15.2---
2024-03-02 10:24 pm W 13 16----30.00--10.1--14.4---
2024-03-02 10:13 pm W 13 16----30.00- -9.9--14.1---
2024-03-02 10:03 pm W 14 16----30.00--11.0--15.3---
2024-03-02 09:53 pm W 12 15----30.01--12.1--16.8---
2024-03-02 09:43 pmWSW 11 14----30.00--11.6--16.2---
2024-03-02 09:33 pm W 13 15----30.01- -8.9--12.6---
2024-03-02 09:23 pm W 14 16----30.01- -9.6--13.5---
2024-03-02 09:13 pm W 15 16----30.01--11.4--15.7---
2024-03-02 09:04 pm W 15 18----30.02--11.6--16.1---
2024-03-02 08:53 pmWSW 14 17----30.02--12.1--16.8---
2024-03-02 08:44 pmWSW 14 17----30.02--11.9--16.4---
2024-03-02 08:34 pmWSW 14 17----30.02--11.9--16.4---
2024-03-02 08:23 pmWSW 15 17----30.02--10.8--15.2---
2024-03-02 08:13 pmWSW 15 17----30.02- -9.2--13.2---
2024-03-02 08:04 pmWSW 14 15----30.01- -9.4--13.4---
2024-03-02 07:53 pmWSW 14 15----30.02- -9.8--13.7---
2024-03-02 07:44 pmWSW 15 17----30.02--10.7--15.0---
2024-03-02 07:34 pmWSW 14 17----30.03--12.3--17.0---
2024-03-02 07:24 pmWSW 15 18----30.03--12.5--17.1---
2024-03-02 07:14 pmWSW 14 17----30.04--12.8--17.7---
2024-03-02 07:04 pmWSW 14 18----30.04--13.2--18.0---
2024-03-02 06:54 pmWSW 13 17----30.05--13.5--18.4---
2024-03-02 06:43 pmWSW 13 17----30.05--13.4--18.2---
2024-03-02 06:34 pmWSW 13 16----30.05--13.9--18.9---
2024-03-02 06:23 pmWSW 12 16----30.05--14.3--19.3---
2024-03-02 06:13 pmWSW 12 14----30.06--14.3--19.3---
2024-03-02 06:04 pmWSW 12 15----30.06--14.3--19.3---
2024-03-02 05:53 pmWSW 13 17----30.06--13.9--18.9---
2024-03-02 05:43 pmWSW 12 16----30.06--13.5--18.6---
2024-03-02 05:33 pmWSW 11 15----30.06--13.4--18.2---
2024-03-02 05:23 pmWSW 11 14----30.06--12.8--17.7---
2024-03-02 05:13 pmWSW 12 15----30.06--12.3--17.0---
2024-03-02 05:04 pmWSW 13 16----30.06--11.9--16.6---
2024-03-02 04:54 pmWSW 12 16----30.06--11.6--16.2---
2024-03-02 04:34 pmWSW 13 17----30.08--11.2--15.7---
2024-03-02 04:23 pmWSW 12 16----30.08--11.2--15.7---
2024-03-02 04:14 pmWSW 14 17----30.09--11.4--15.9---
2024-03-02 04:03 pmWSW 14 18----30.09--11.4--15.9---
2024-03-02 03:43 pmWSW 14 17----30.09--11.6--16.2---
2024-03-02 03:34 pmWSW 13 16----30.09--11.4--15.9---
2024-03-02 03:23 pmWSW 14 17----30.09--11.2--15.7---
2024-03-02 03:14 pmWSW 12 15----30.09--10.7--15.2---
2024-03-02 02:54 pmWSW 13 15----30.09--10.3--14.6---
2024-03-02 02:43 pmWSW 13 16----30.09--10.1--14.4---
2024-03-02 02:33 pmWSW 13 15----30.10- -9.9--14.3---
2024-03-02 02:24 pmWSW 13 17----30.10- -9.4--13.5---
2024-03-02 02:13 pmWSW 14 16----30.11- -9.4--13.4---
2024-03-02 02:03 pmWSW 13 16----30.11- -9.2--13.4---
2024-03-02 01:53 pmWSW 14 17----30.12- -8.9--12.8---
2024-03-02 01:44 pmWSW 14 17----30.12- -8.9--12.8---
2024-03-02 01:34 pmWSW 14 18----30.12- -8.7--12.6---
2024-03-02 01:24 pmWSW 15 17----30.12- -8.7--12.6---
2024-03-02 01:13 pmWSW 14 17----30.12- -8.7--12.6---
2024-03-02 01:03 pmWSW 14 17----30.12- -8.3--12.3---
2024-03-02 12:53 pmWSW 14 17----30.12- -8.1--11.9---
2024-03-02 12:43 pmWSW 13 16----30.12- -8.0--11.7---
2024-03-02 12:33 pmWSW 13 16----30.13- -8.1--11.9---
2024-03-02 12:24 pmWSW 12 15----30.13- -8.3--12.1---
2024-03-02 12:13 pmWSW 12 15----30.13- -8.3--12.1---
2024-03-02 12:03 pm W 13 15----30.14- -8.7--12.5---
2024-03-02 11:54 am W 12 14----30.14- -8.5--12.3---
2024-03-02 11:43 am W 11 15----30.14- -8.3--12.1---
2024-03-02 11:33 amWSW 11 14----30.14- -8.5--12.3---
2024-03-02 11:24 amWSW 13 15----30.14- -8.7--12.5---
2024-03-02 11:14 amWSW 13 16----30.15- -8.7--12.5---
2024-03-02 11:04 amWSW 13 17----30.15- -8.5--12.3---
2024-03-02 10:53 amWSW 14 16----30.15- -8.5--12.3---
2024-03-02 10:44 amWSW 13 17----30.15- -8.7--12.5---
2024-03-02 10:34 amWSW 15 18----30.15- -8.5--12.3---
2024-03-02 10:24 amWSW 15 19----30.15- -8.5--12.3---
2024-03-02 10:14 amWSW 14 19----30.15- -8.7--12.5---
2024-03-02 10:03 amWSW 13 16----30.16- -8.9--12.8---
2024-03-02 09:53 amWSW 14 17----30.16- -9.0--13.0---
2024-03-02 09:43 amWSW 13 16----30.17- -9.4--13.4---
2024-03-02 09:33 am SW 13 16----30.17- -9.6--13.5---
2024-03-02 09:23 am SW 13 16----30.17- -9.8--13.7---
2024-03-02 09:13 am SW 12 15----30.18- -9.8--13.9---
2024-03-02 09:03 amWSW 14 17----30.18- -9.8--13.9---
2024-03-02 08:53 am SW 13 16----30.19- -9.9--14.1---